Weather History for Taba International, Egypt

Change the Weather History Date:

Wednesday, November 20, 2013

  Actual Average Record
Temperature  
Mean Temperature 56 °F -  
Max Temperature 66 °F - - ()
Min Temperature 46 °F - - ()
Degree Days  
Heating Degree Days 9    
Growing Degree Days 6 (Base 50)    
Moisture  
Dew Point 42 °F    
Average Humidity 60    
Maximum Humidity 81    
Minimum Humidity 35    
Precipitation  
Precipitation 0.00 in - - ()
Sea Level Pressure  
Sea Level Pressure 30.10 in    
Wind  
Wind Speed 2 mph ()    
Max Wind Speed 10 mph    
Max Gust Speed 20 mph    
T = Trace of Precipitation, MM = Missing Value Source: Averaged Metar Reports

Daily Weather History Graph

Daily Weather History Graph

Search for Another Location

Airport:

Trip Planner

Search our weather history database for the weather conditions in past years. The results will help you decide how hot, cold, wet, or windy it might be!

Date:

Astronomy

Nov. 20, 2013 Rise Set
Actual Time 6:09 AM EET 4:43 PM EET
Civil Twilight 5:43 AM EET 5:08 PM EET
Nautical Twilight 5:14 AM EET 5:37 PM EET
Astronomical Twilight 4:46 AM EET 6:06 PM EET
Moon 7:08 PM EET (11/20) 8:18 AM EET (11/20)
Length of Visible Light 11h 25m
Length of Day
10h 34m
Waning Gibbous, 93% of the Moon is Illuminated
Nov 20
Waning Gibbous
Nov 25
Last Quarter
Dec 3
New
Dec 9
First Quarter
Dec 17
Full

Hourly Weather History & Observations

Time (EET) Temp. Dew Point Humidity Pressure Visibility Wind Dir Wind Speed Gust Speed Precip Events Conditions
12:00 AM 50.0 °F 42.8 °F 76% 30.09 in - Calm Calm - N/A   Clear
1:00 AM 50.0 °F 42.8 °F 76% 30.09 in - Calm Calm - N/A   Clear
2:00 AM 50.0 °F 42.8 °F 76% 30.06 in - Calm Calm - N/A   Clear
3:00 AM 50.0 °F 42.8 °F 76% 30.06 in - Calm Calm - N/A   Clear
4:00 AM 48.2 °F 41.0 °F 76% 30.06 in - Calm Calm - N/A   Clear
5:00 AM 48.2 °F 41.0 °F 76% 30.09 in - Calm Calm - N/A   Clear
6:00 AM 46.4 °F 41.0 °F 81% 30.09 in - Calm Calm - N/A   Clear
7:00 AM 46.4 °F 39.2 °F 76% 30.09 in - Calm Calm - N/A   Clear
8:00 AM 55.4 °F 46.4 °F 72% 30.12 in - Calm Calm - N/A   Clear
9:00 AM 57.2 °F 44.6 °F 63% 30.12 in - Calm Calm - N/A   Clear
10:00 AM 60.8 °F 44.6 °F 55% 30.12 in - Calm Calm - N/A   Clear
11:00 AM 62.6 °F 42.8 °F 48% 30.12 in - NNW 4.6 mph - N/A   Clear
12:00 PM 64.4 °F 42.8 °F 45% 30.09 in - NW 8.1 mph - N/A   Clear
1:00 PM 64.4 °F 41.0 °F 42% 30.06 in - North 6.9 mph 19.6 mph N/A   Clear
2:00 PM 66.2 °F 37.4 °F 35% 30.06 in - NNW 10.4 mph - N/A   Clear
3:00 PM 66.2 °F 37.4 °F 35% 30.06 in - NNW 10.4 mph - N/A   Clear
4:00 PM 66.2 °F 37.4 °F 35% 30.06 in - NNW 9.2 mph - N/A   Clear
5:00 PM 62.6 °F 37.4 °F 39% 30.09 in - NNW 6.9 mph - N/A   Clear
6:00 PM 60.8 °F 41.0 °F 48% 30.12 in - NW 2.3 mph - N/A   Clear
7:00 PM 59.0 °F 42.8 °F 55% 30.12 in - WNW 3.5 mph - N/A   Clear
8:00 PM 55.4 °F 42.8 °F 63% 30.15 in - Calm Calm - N/A   Clear
9:00 PM 55.4 °F 42.8 °F 63% 30.15 in - Calm Calm - N/A   Clear
10:00 PM 53.6 °F 42.8 °F 67% 30.15 in - Calm Calm - N/A   Clear
11:00 PM 51.8 °F 42.8 °F 71% 30.15 in - WNW 3.5 mph - N/A   Clear